User: anonymous   Login
Location: Chervonnoye
(48.6000°N, 34.4000°E)
Time: 05:18:12
(UTC+00:00)
Language:

Cosmos 2154 Rocket - Orbit

View from above orbital plane
View from above orbital plane
View from above satellite
View from above satellite

Ground track
Ground track

The orbit data is extracted from the following two-line orbital elements,

1 21667U 91059B   21055.38173325 -.00000039  00000-0 -57112-4 0  9995
2 21667  82.9025  85.1409 0022249  95.5032 276.4754 13.75111959480717
Epoch (UTC): 24 February 2021 09:09:41
Eccentricity: 0.0022249
inclination: 82.9025°
perigee height: 965 km
apogee height: 997 km
right ascension of ascending node: 85.1409°
argument of perigee: 95.5032°
revolutions per day: 13.75111959
mean anomaly at epoch: 276.4754°
orbit number at epoch: 48071

The dashed part of the orbit path shows where the satellite is in the earth's shadow,  

DLR